Regional Weather Roundup
Issued by NWS Jackson, KY

Home | Current Version | Previous Version | Graphics & Text | Print | Product List | Glossary On
Versions: 1 2 3 4 5 6 7 8 9 10 11 12 13 14 15 16 17 18 19 20 21 22 23 24 25 26 27 28 29 30 31 32 33 34 35 36 37 38 39 40 41 42 43 44 45 46 47 48 49 50
929
ASUS43 KJKL 181210
RWRJKL

EAST KENTUCKY HOURLY WEATHER ROUNDUP
NATIONAL WEATHER SERVICE JACKSON KY
700 AM EST WED JAN 18 2017

NOTE: "FAIR" INDICATES FEW OR NO CLOUDS BELOW 12,000 FEET WITH
NO SIGNIFICANT WEATHER AND/OR OBSTRUCTIONS TO VISIBILITY.

* THESE REPORTS ARE NOT UNDER NWS QUALITY CONTROL AND MAY NOT
  REPORT WEATHER SUCH AS PRECIPITATION AND FOG.

KYZ079-080-083-085-087-088-110-112-115-119-120-181300
...EASTERN KENTUCKY...

CITY           SKY/WX    TMP DP  RH WIND       PRES   REMARKS
JACKSON        CLOUDY    42  38  85 NW9       30.14R
6HR MIN TEMP:  42; 6HR MAX TEMP:  50;

LONDON         CLOUDY    42  38  85 NW8       30.16R
6HR MIN TEMP:  42; 6HR MAX TEMP:  51;

SOMERSET*      CLOUDY    41  39  93 W5        30.20R
MONTICELLO*    CLOUDY    43  41  93 N8        30.20R
6HR MIN TEMP:  43; 6HR MAX TEMP:  50;

WILLIAMSBURG*  CLOUDY    45  45 100 NW3       30.17R
MIDDLESBORO*   CLOUDY    49  45  84 CALM      30.15R
6HR MIN TEMP:  49; 6HR MAX TEMP:  57;

HARLAN APT*    CLOUDY    46  41  81 W8        30.13R
PIKE CO APT*   CLOUDY    44  44 100 W9G16     30.11R
BIG SANDY APT* DRIZZLE   43  42  97 NW7       30.12R
6HR MIN TEMP:  43; 6HR MAX TEMP:  53;

MOREHEAD APT*  CLOUDY    43  37  81 VRB5      30.15R
ASHLAND*       CLOUDY    45  39  81 W9        30.11R
$$

KYZ035-036-041-042-044-050-067-078-099-181300
...CENTRAL KENTUCKY...

CITY           SKY/WX    TMP DP  RH WIND       PRES   REMARKS
MT STERLING*   CLOUDY    41  39  93 NW6       30.17R
FLEMING/MASON* DRIZZLE   40  38  95 W12       30.15R WCI  32
DANVILLE*      CLOUDY    41  37  87 NW8       30.18R
LEXINGTON      CLOUDY    42  37  82 W9        30.16R
6HR MIN TEMP:  42; 6HR MAX TEMP:  43; 6HR PCP:  0.01;

FRANKFORT      CLOUDY    42  35  76 W6        30.16R
6HR MIN TEMP:  42; 6HR MAX TEMP:  44;

LOUISVILLE     CLOUDY    42  36  79 W8        30.18R
6HR MIN TEMP:  42; 6HR MAX TEMP:  45; 6HR PCP: TRACE;

LEBANON*       CLOUDY    41  37  87 W6        30.18R
GLASGOW*       CLOUDY    43  39  85 NW3       30.19S
BOWLING GREEN  CLOUDY    45  39  79 NW5       30.20R
6HR MIN TEMP:  45; 6HR MAX TEMP:  47;

$$

KYZ091>093-OHZ055-061-077-WVZ005-015-034-035-042-181300
...SOUTHERN OHIO/WEST VIRGINIA...

CITY           SKY/WX    TMP DP  RH WIND       PRES   REMARKS
COVINGTON      DRIZZLE   37  36  96 W10       30.14S FOG     WCI  30
COLUMBUS       CLOUDY    39  34  82 W12       30.09R WCI  32
DAYTON         CLOUDY    36  33  89 W14       30.12R WCI  27
WILMINGTON     CLOUDY    36  34  92 NW10      30.12R WCI  28
HUNTINGTON     CLOUDY    44  37  76 W12       30.11R
CHARLESTON     CLOUDY    44  40  85 W7        30.09R
PINEVILLE*     DRIZZLE   48  41  76 MISG      30.11R
BECKLEY        CLOUDY    44  41  89 NW10      30.04R
BLUEFIELD      CLOUDY    45  40  82 NW13G21   30.03R
LOGAN CO APT*  DRIZZLE   45  43  93 NW5G14    30.08R
$$

VAZ002-007-008-TNZ017-027-036-066-071-181300
...SOUTHWEST VIRGINIA/EAST TENNESSEE...

CITY           SKY/WX    TMP DP  RH WIND       PRES   REMARKS
WISE*          PTCLDY    45  39  81 W12       30.09R
JONESVILLE*      N/A     48  45  87 SW6       30.14R
ABINGDON*      CLOUDY    52  48  86 W6        30.08R
BRISTOL        PTCLDY    51  44  77 W15       30.09R
MORRISTOWN*    CLOUDY    50  46  87 NW6       30.13R
SEVIERVILLE*   PTSUNNY   54  52  94 NW8       30.13R
KNOXVILLE      PTCLDY    51  44  77 W9        30.14R
LAFOLLETTE*    CLOUDY    50  43  76 CALM      30.17R
OAK RIDGE      PTCLDY    50  43  77 SW3       30.15R
CROSSVILLE     CLOUDY    45  43  93 W7        30.16R
NASHVILLE      CLOUDY    46  40  79 N8        30.20R
$$

...KEY TO REMARKS...
VSB - VISIBILITY IN MILES
WCI - WIND CHILL INDEX
HX  - HEAT INDEX

$$




USA.gov is the U.S. government's official web portal to all federal, state and local government web resources and services.